Location: Azul
(36.7830°S, 59.8500°W)
Time: 10:00:18
(UTC-03:00)

UKube-1 - Pass Details

Date: 28 October 2021
Orbit: 611 x 617 km, 98.4° (Epoch: 07 December)

Event Time Altitude Azimuth Distance (km) Brightness Sun altitude
Exits shadow 21:01:41 26° 15° (NNE) 1,218 ? -17.7°
Maximum altitude 21:04:04 88° 97° (E) 629 ? -18.1°
Drops below altitude 10° 21:08:27 10° 192° (SSW) 2,005 ? -18.8°
Sets 21:10:39 0° 192° (SSW) 2,917 ? -19.2°
